Location: York
(31.8935°S, 116.7682°E)
Time: 22:17:28
(UTC+08:00)

Envisat - Pass Details

Date: 21 May 2021
Orbit: 764 x 766 km, 98.1° (Epoch: 13 June)

Event Time Altitude Azimuth Distance (km) Brightness Sun altitude
Rises 18:14:36 0° 179° (S) 3,264 6.1 -11.6°
Reaches altitude 10° 18:17:04 10° 187° (S) 2,331 5.4 -12.1°
Maximum altitude 18:21:43 36° 252° (WSW) 1,216 4.6 -13.0°
Drops below altitude 10° 18:26:20 10° 317° (NW) 2,305 6.4 -14.0°
Sets 18:28:47 0° 325° (NW) 3,223 7.1 -14.5°
